EZS1047 LFSB-LFMP

Flight info

Callsign EZS1047
Flight time 1h 9m
Altitude 31000
Route OLBEN Z50 ROTOS Z669 VADAR DCT GEVEA DCT INCUS DCT BALSI DCT ETIDO DCT KURIR DCT MTL DCT MOLEN DCT NG DCT FJR
Aircraft A320/M-SDE3FGHIRWY/LB1

Departure

Time 2026-04-28 16:26
Airport EuroAirport Basel–Mulhouse–Freiburg (LFSB)

Arrival

Time 2026-04-28 17:36
Airport Perpignan-Rivesaltes (Llabanère) Airport (LFMP)
Time Latitude Longitude Altitude Speed Heading
2026-04-28 15:57 47.59868 7.52808 890 ft 0 kts 65°
2026-04-28 16:17 47.59864 7.52796 890 ft 4 kts 67°
2026-04-28 16:17 47.59856 7.52758 890 ft 4 kts 81°
2026-04-28 16:17 47.59856 7.52721 890 ft 4 kts 116°
2026-04-28 16:18 47.59867 7.52702 890 ft 1 kts 155°
2026-04-28 16:18 47.59870 7.52700 890 ft 0 kts 155°
2026-04-28 16:21 47.59865 7.52703 890 ft 6 kts 155°
2026-04-28 16:21 47.59793 7.52745 890 ft 12 kts 181°
2026-04-28 16:21 47.59710 7.52715 890 ft 14 kts 159°
2026-04-28 16:22 47.59593 7.52794 890 ft 21 kts 155°
2026-04-28 16:22 47.59451 7.52892 890 ft 23 kts 155°
2026-04-28 16:22 47.59300 7.52997 890 ft 25 kts 154°
2026-04-28 16:22 47.59185 7.53093 890 ft 5 kts 102°
2026-04-28 16:23 47.59181 7.53194 890 ft 16 kts 102°
2026-04-28 16:23 47.59150 7.53322 890 ft 15 kts 78°
2026-04-28 16:23 47.59175 7.53483 890 ft 17 kts 78°
2026-04-28 16:23 47.59202 7.53657 890 ft 18 kts 77°
2026-04-28 16:24 47.59233 7.53849 890 ft 17 kts 76°
2026-04-28 16:24 47.59243 7.53909 890 ft 0 kts 77°
2026-04-28 16:24 47.59244 7.53920 890 ft 7 kts 80°
2026-04-28 16:25 47.59223 7.54005 890 ft 8 kts 120°
2026-04-28 16:25 47.59166 7.54036 890 ft 12 kts 221°
2026-04-28 16:25 47.59154 7.53990 890 ft 0 kts 258°
2026-04-28 16:25 47.59154 7.53989 890 ft 2 kts 258°
2026-04-28 16:26 47.59098 7.53613 891 ft 74 kts 256°
2026-04-28 16:26 47.58932 7.52557 892 ft 133 kts 256°
2026-04-28 16:26 47.58697 7.51003 992 ft 169 kts 259°
2026-04-28 16:26 47.58444 7.49276 1594 ft 173 kts 258°
2026-04-28 16:27 47.58174 7.47524 2209 ft 181 kts 257°
2026-04-28 16:27 47.57849 7.45618 2506 ft 201 kts 248°
2026-04-28 16:27 47.55387 7.43650 3171 ft 236 kts 167°
2026-04-28 16:28 47.53899 7.44679 3893 ft 240 kts 139°
2026-04-28 16:28 47.53188 7.45934 4408 ft 242 kts 118°
2026-04-28 16:28 47.52559 7.49179 5260 ft 258 kts 107°
2026-04-28 16:28 47.51570 7.51438 5895 ft 270 kts 142°
2026-04-28 16:29 47.48049 7.53570 7540 ft 278 kts 165°
2026-04-28 16:29 47.44284 7.55175 9166 ft 286 kts 163°
2026-04-28 16:30 47.42378 7.56102 9967 ft 290 kts 161°
2026-04-28 16:30 47.40443 7.57127 10466 ft 305 kts 160°
2026-04-28 16:30 47.38377 7.58281 10687 ft 328 kts 159°
2026-04-28 16:30 47.36212 7.59532 11214 ft 338 kts 159°
2026-04-28 16:31 47.34010 7.60825 11937 ft 342 kts 159°
2026-04-28 16:31 47.31789 7.62135 12682 ft 345 kts 159°
2026-04-28 16:31 47.29599 7.63628 13403 ft 349 kts 151°
2026-04-28 16:31 47.27480 7.65420 13916 ft 352 kts 151°
2026-04-28 16:32 47.25347 7.67215 14411 ft 354 kts 151°
2026-04-28 16:32 47.20673 7.69217 15700 ft 355 kts 183°
2026-04-28 16:32 47.18255 7.68517 16337 ft 356 kts 201°
2026-04-28 16:33 47.16105 7.66728 16975 ft 357 kts 219°
2026-04-28 16:33 47.15481 7.65907 17191 ft 358 kts 225°
2026-04-28 16:33 47.12851 7.61156 18239 ft 362 kts 231°
2026-04-28 16:33 47.11283 7.58238 18761 ft 365 kts 231°
2026-04-28 16:34 47.09702 7.55305 19311 ft 367 kts 232°
2026-04-28 16:34 47.08117 7.52370 19876 ft 368 kts 232°
2026-04-28 16:34 47.06525 7.49428 20442 ft 369 kts 232°
2026-04-28 16:34 47.04923 7.46481 21064 ft 370 kts 232°
2026-04-28 16:35 47.03314 7.43527 21674 ft 372 kts 232°
2026-04-28 16:35 47.01699 7.40562 22247 ft 373 kts 232°
2026-04-28 16:35 47.00070 7.37584 22810 ft 375 kts 232°
2026-04-28 16:35 46.98436 7.34602 23311 ft 376 kts 232°
2026-04-28 16:36 46.96784 7.31600 23760 ft 379 kts 232°
2026-04-28 16:36 46.95131 7.28595 24163 ft 380 kts 233°
2026-04-28 16:36 46.93472 7.25569 24545 ft 382 kts 233°
2026-04-28 16:36 46.91807 7.22526 24937 ft 384 kts 233°
2026-04-28 16:37 46.90137 7.19474 25326 ft 385 kts 233°
2026-04-28 16:37 46.88458 7.16412 25710 ft 387 kts 233°
2026-04-28 16:37 46.86770 7.13344 26099 ft 388 kts 233°
2026-04-28 16:38 46.83338 7.07129 26865 ft 392 kts 233°
2026-04-28 16:38 46.81624 7.04031 27234 ft 393 kts 233°
2026-04-28 16:38 46.79904 7.00917 27602 ft 395 kts 233°
2026-04-28 16:38 46.78180 6.97793 27963 ft 396 kts 233°
2026-04-28 16:39 46.76446 6.94652 28319 ft 398 kts 233°
2026-04-28 16:39 46.74701 6.91499 28641 ft 400 kts 233°
2026-04-28 16:39 46.72947 6.88336 29004 ft 402 kts 233°
2026-04-28 16:39 46.71186 6.85168 29349 ft 403 kts 233°
2026-04-28 16:40 46.69933 6.83161 29558 ft 407 kts 225°
2026-04-28 16:40 46.67629 6.80706 29841 ft 413 kts 217°
2026-04-28 16:40 46.65211 6.78433 30127 ft 415 kts 216°
2026-04-28 16:40 46.62770 6.76174 30379 ft 417 kts 216°
2026-04-28 16:41 46.60316 6.73924 30645 ft 418 kts 216°
2026-04-28 16:41 46.57851 6.71671 30889 ft 419 kts 216°
2026-04-28 16:41 46.55383 6.69413 31029 ft 417 kts 216°
2026-04-28 16:41 46.52977 6.67213 31052 ft 402 kts 216°
2026-04-28 16:42 46.50631 6.65069 31050 ft 396 kts 217°
2026-04-28 16:42 46.45999 6.60817 31051 ft 393 kts 217°
2026-04-28 16:43 46.41387 6.56589 31047 ft 392 kts 217°
2026-04-28 16:43 46.36771 6.52361 31038 ft 392 kts 216°
2026-04-28 16:44 46.32148 6.48145 31046 ft 393 kts 216°
2026-04-28 16:44 46.27528 6.43938 31048 ft 393 kts 216°
2026-04-28 16:45 46.22903 6.39734 31049 ft 393 kts 216°
2026-04-28 16:45 46.18278 6.35539 31047 ft 392 kts 216°
2026-04-28 16:46 46.13660 6.31361 31042 ft 391 kts 216°
2026-04-28 16:46 46.09049 6.27193 31040 ft 391 kts 216°
2026-04-28 16:47 46.04432 6.23031 31041 ft 391 kts 216°
2026-04-28 16:47 45.99765 6.18837 31043 ft 403 kts 215°
2026-04-28 16:48 45.94949 6.14522 31070 ft 410 kts 215°
2026-04-28 16:48 45.90101 6.10188 31049 ft 411 kts 215°
2026-04-28 16:49 45.85250 6.05848 31061 ft 411 kts 215°
2026-04-28 16:49 45.80396 6.01517 31028 ft 411 kts 215°
2026-04-28 16:50 45.75511 5.97173 31028 ft 411 kts 215°
2026-04-28 16:50 45.70650 5.92851 31016 ft 411 kts 215°
2026-04-28 16:51 45.65794 5.88543 31041 ft 411 kts 215°
2026-04-28 16:51 45.60932 5.84242 31035 ft 410 kts 214°
2026-04-28 16:52 45.56084 5.79976 31045 ft 410 kts 214°
2026-04-28 16:52 45.51227 5.75709 31031 ft 410 kts 214°
2026-04-28 16:53 45.46380 5.71440 31016 ft 410 kts 214°
2026-04-28 16:53 45.41529 5.67177 30991 ft 410 kts 214°
2026-04-28 16:54 45.36659 5.62917 30991 ft 412 kts 214°
2026-04-28 16:54 45.31777 5.58652 31017 ft 412 kts 214°
2026-04-28 16:55 45.26887 5.54378 31024 ft 413 kts 214°
2026-04-28 16:55 45.21987 5.50115 31016 ft 414 kts 214°
2026-04-28 16:56 45.17076 5.45852 31013 ft 415 kts 214°
2026-04-28 16:56 45.12153 5.41590 31012 ft 415 kts 214°
2026-04-28 16:57 45.07197 5.37303 31011 ft 415 kts 214°
2026-04-28 16:57 45.02262 5.33047 31000 ft 415 kts 214°
2026-04-28 16:58 44.97321 5.28793 31003 ft 416 kts 214°
2026-04-28 16:58 44.92382 5.24545 31005 ft 416 kts 214°
2026-04-28 16:59 44.87443 5.20308 30992 ft 416 kts 214°
2026-04-28 16:59 44.82496 5.16076 30996 ft 416 kts 214°
2026-04-28 17:00 44.77547 5.11850 30998 ft 416 kts 214°
2026-04-28 17:00 44.72599 5.07626 31002 ft 416 kts 214°
2026-04-28 17:01 44.67652 5.03415 31002 ft 416 kts 214°
2026-04-28 17:01 44.62698 4.99210 30998 ft 416 kts 214°
2026-04-28 17:02 44.57741 4.95001 31010 ft 416 kts 214°
2026-04-28 17:02 44.52791 4.90813 31009 ft 416 kts 214°
2026-04-28 17:03 44.45355 4.84554 30992 ft 416 kts 213°
2026-04-28 17:03 44.40395 4.80386 30993 ft 416 kts 213°
2026-04-28 17:04 44.32953 4.74145 30993 ft 416 kts 213°
2026-04-28 17:05 44.25492 4.67890 30988 ft 417 kts 213°
2026-04-28 17:06 44.18027 4.61653 30992 ft 417 kts 213°
2026-04-28 17:06 44.10544 4.55441 30986 ft 418 kts 213°
2026-04-28 17:07 44.05515 4.51384 30988 ft 419 kts 208°
2026-04-28 17:07 44.00049 4.48329 30997 ft 421 kts 204°
2026-04-28 17:08 43.94615 4.45404 31003 ft 421 kts 204°
2026-04-28 17:08 43.89118 4.42439 30997 ft 421 kts 206°
2026-04-28 17:09 43.84243 4.38126 31001 ft 415 kts 224°
2026-04-28 17:09 43.80357 4.32265 31006 ft 413 kts 230°
2026-04-28 17:10 43.76533 4.26320 31008 ft 413 kts 230°
2026-04-28 17:10 43.72697 4.20396 30999 ft 414 kts 229°
2026-04-28 17:11 43.68858 4.14458 30995 ft 414 kts 229°
2026-04-28 17:11 43.66936 4.11490 30751 ft 415 kts 229°
2026-04-28 17:11 43.65010 4.08518 30510 ft 415 kts 229°
2026-04-28 17:12 43.63086 4.05549 30277 ft 414 kts 229°
2026-04-28 17:12 43.61816 4.03591 30111 ft 414 kts 229°
2026-04-28 17:12 43.59895 4.00636 29798 ft 411 kts 229°
2026-04-28 17:12 43.57999 3.97724 29221 ft 406 kts 229°
2026-04-28 17:13 43.56076 3.94895 28625 ft 402 kts 226°
2026-04-28 17:13 43.54116 3.92175 28067 ft 398 kts 225°
2026-04-28 17:13 43.52137 3.89521 27500 ft 395 kts 225°
2026-04-28 17:13 43.50165 3.86911 26940 ft 391 kts 224°
2026-04-28 17:14 43.48209 3.84322 26390 ft 388 kts 225°
2026-04-28 17:14 43.46278 3.81744 25853 ft 385 kts 225°
2026-04-28 17:14 43.44372 3.79180 25310 ft 382 kts 225°
2026-04-28 17:14 43.42489 3.76631 24806 ft 378 kts 225°
2026-04-28 17:15 43.40624 3.74100 24294 ft 375 kts 225°
2026-04-28 17:15 43.38773 3.71586 23812 ft 372 kts 225°
2026-04-28 17:15 43.36942 3.69099 23276 ft 368 kts 225°
2026-04-28 17:15 43.35133 3.66646 22816 ft 363 kts 225°
2026-04-28 17:16 43.33344 3.64226 22363 ft 358 kts 225°
2026-04-28 17:16 43.31578 3.61842 21941 ft 354 kts 225°
2026-04-28 17:16 43.29823 3.59475 21244 ft 356 kts 225°
2026-04-28 17:16 43.28036 3.57069 19959 ft 364 kts 225°
2026-04-28 17:17 43.26201 3.54604 18558 ft 374 kts 225°
2026-04-28 17:17 43.24352 3.52123 17810 ft 364 kts 225°
2026-04-28 17:17 43.22578 3.49746 17545 ft 352 kts 225°
2026-04-28 17:17 43.20839 3.47419 17302 ft 347 kts 225°
2026-04-28 17:18 43.19110 3.45104 16757 ft 347 kts 225°
2026-04-28 17:18 43.17391 3.42800 16186 ft 346 kts 225°
2026-04-28 17:18 43.15671 3.40496 15646 ft 347 kts 225°
2026-04-28 17:18 43.13943 3.38184 15092 ft 347 kts 225°
2026-04-28 17:19 43.12213 3.35873 14570 ft 347 kts 224°
2026-04-28 17:19 43.10470 3.33550 14032 ft 341 kts 224°
2026-04-28 17:19 43.08791 3.31311 13480 ft 334 kts 224°
2026-04-28 17:19 43.07136 3.29107 12902 ft 331 kts 224°
2026-04-28 17:20 43.05497 3.26922 12335 ft 328 kts 224°
2026-04-28 17:20 43.04421 3.25487 11967 ft 325 kts 224°
2026-04-28 17:20 43.02261 3.22616 11234 ft 323 kts 224°
2026-04-28 17:20 43.00643 3.20473 10696 ft 325 kts 224°
2026-04-28 17:21 42.99021 3.18322 10166 ft 325 kts 224°
2026-04-28 17:21 42.97396 3.16171 9615 ft 325 kts 224°
2026-04-28 17:21 42.95785 3.14037 9066 ft 317 kts 224°
2026-04-28 17:22 42.92865 3.10173 8788 ft 269 kts 224°
2026-04-28 17:22 42.91574 3.08464 8662 ft 249 kts 223°
2026-04-28 17:22 42.90357 3.06850 8526 ft 240 kts 225°
2026-04-28 17:23 42.89003 3.02787 8295 ft 244 kts 265°
2026-04-28 17:23 42.89216 3.00486 8156 ft 247 kts 285°
2026-04-28 17:23 42.89830 2.98291 8043 ft 248 kts 288°
2026-04-28 17:23 42.90445 2.96098 7918 ft 248 kts 288°
2026-04-28 17:24 42.91053 2.93905 7792 ft 247 kts 288°
2026-04-28 17:24 42.91661 2.91704 7672 ft 247 kts 288°
2026-04-28 17:24 42.92267 2.89509 7546 ft 248 kts 288°
2026-04-28 17:24 42.92877 2.87304 7426 ft 248 kts 287°
2026-04-28 17:25 42.93483 2.85113 7297 ft 246 kts 288°
2026-04-28 17:25 42.94679 2.80771 6964 ft 247 kts 288°
2026-04-28 17:25 42.95290 2.78510 6503 ft 252 kts 284°
2026-04-28 17:26 42.95468 2.76181 6135 ft 242 kts 274°
2026-04-28 17:26 42.96172 2.74154 5596 ft 242 kts 317°
2026-04-28 17:26 42.97677 2.73197 5035 ft 240 kts 346°
2026-04-28 17:26 42.99367 2.72978 4492 ft 253 kts 359°
2026-04-28 17:27 43.01124 2.72778 4321 ft 245 kts 335°
2026-04-28 17:27 43.02278 2.71361 4358 ft 215 kts 287°
2026-04-28 17:27 43.02258 2.69489 4560 ft 194 kts 240°
2026-04-28 17:27 43.01335 2.68270 4530 ft 185 kts 205°
2026-04-28 17:28 43.00169 2.67672 4490 ft 173 kts 191°
2026-04-28 17:28 42.98005 2.67632 4484 ft 147 kts 170°
2026-04-28 17:28 42.97052 2.68034 4505 ft 144 kts 160°
2026-04-28 17:29 42.96162 2.68678 4496 ft 142 kts 152°
2026-04-28 17:29 42.95333 2.69374 4497 ft 141 kts 152°
2026-04-28 17:29 42.94488 2.70090 4501 ft 141 kts 153°
2026-04-28 17:30 42.92829 2.71499 4492 ft 140 kts 152°
2026-04-28 17:30 42.91162 2.72908 4334 ft 142 kts 153°
2026-04-28 17:30 42.90322 2.73616 4098 ft 141 kts 152°
2026-04-28 17:31 42.89492 2.74317 3867 ft 140 kts 152°
2026-04-28 17:31 42.87840 2.75709 3439 ft 139 kts 150°
2026-04-28 17:32 42.86205 2.77090 3004 ft 138 kts 151°
2026-04-28 17:32 42.85393 2.77775 2794 ft 137 kts 151°
2026-04-28 17:32 42.84581 2.78460 2581 ft 137 kts 150°
2026-04-28 17:32 42.83771 2.79142 2364 ft 138 kts 150°
2026-04-28 17:33 42.82956 2.79828 2149 ft 137 kts 149°
2026-04-28 17:33 42.82144 2.80512 1931 ft 139 kts 148°
2026-04-28 17:33 42.81338 2.81188 1734 ft 135 kts 148°
2026-04-28 17:33 42.80810 2.81631 1601 ft 134 kts 147°
2026-04-28 17:34 42.79743 2.82510 1288 ft 134 kts 147°
2026-04-28 17:34 42.78955 2.83171 1119 ft 132 kts 146°
2026-04-28 17:34 42.78161 2.83837 985 ft 134 kts 144°
2026-04-28 17:34 42.77352 2.84491 692 ft 136 kts 145°
2026-04-28 17:35 42.76558 2.85167 503 ft 134 kts 143°
2026-04-28 17:35 42.75770 2.85853 307 ft 136 kts 141°
2026-04-28 17:35 42.74973 2.86541 154 ft 132 kts 144°
2026-04-28 17:35 42.74307 2.87098 148 ft 77 kts 150°
2026-04-28 17:36 42.74106 2.87246 146 ft 16 kts 179°
2026-04-28 17:36 42.74053 2.87188 147 ft 6 kts 235°
2026-04-28 17:36 42.74037 2.87155 147 ft 3 kts 236°
2026-04-28 17:36 42.74019 2.87119 147 ft 4 kts 236°
2026-04-28 17:37 42.74003 2.87088 147 ft 4 kts 234°
2026-04-28 17:37 42.73988 2.87060 147 ft 4 kts 234°
2026-04-28 17:37 42.73966 2.87008 148 ft 7 kts 250°
2026-04-28 17:37 42.73985 2.86981 148 ft 4 kts 354°
2026-04-28 17:38 42.73996 2.86942 148 ft 10 kts 290°
2026-04-28 17:38 42.74021 2.86925 148 ft 0 kts 351°
2026-04-28 17:38 42.74025 2.86924 148 ft 0 kts 351°